This demonstration page uses our WeatherBlox Daily Observations layout. Learn more.

Left ArrowRight Arrow

39.08367, -84.50855

Hourly Observations for December 17, 2015

Temp ( °F °C ) Dew Point ( °F °C ) Humidity (%) Winds ( mph kmh ) Pressure ( in mb ) Visibility ( mi km ) Precip ( " mm )
12:53 am 00:53 Cloudy 56 13.3 51 10.6 84 84 SSW 10 17 29.76 1008 10 16 0.00 0.00
1:53 am 01:53 Cloudy 55 12.8 50 10 83 83 WSW 9 15 29.75 1007 10 16 0.00 0.00
2:53 am 02:53 Cloudy 50 10 41 5 71 71 NNW 10 17 29.79 1009 10 16 0.00 0.00
3:42 am 03:42 Cloudy 46 8 36 2 66 66 NW 9 15 29.83 1010 10 16 0.00 0.00
3:53 am 03:53 Cloudy 46 7.8 34 1.1 63 63 NW 8 13 29.82 1010 10 16 0.00 0.00
4:53 am 04:53 Cloudy 45 7.2 31 -0.6 58 58 NW 8 13 29.82 1010 10 16 0.00 0.00
5:30 am 05:30 Mostly Cloudy 43 6 32 0 66 66 WNW 7 11 29.85 1011 10 16 0.00 0.00
5:53 am 05:53 Clear 42 5.6 33 0.6 71 71 NNW 7 11 29.84 1011 10 16 0.00 0.00
6:53 am 06:53 Partly Cloudy 39 3.9 31 -0.6 73 73 NNW 10 17 29.86 1011 10 16 0.00 0.00
7:53 am 07:53 Cloudy 38 3.3 27 -2.8 65 65 NNW 7 11 29.87 1012 10 16 0.00 0.00
8:53 am 08:53 Mostly Sunny 38 3.3 27 -2.8 65 65 NW 5 7 29.88 1012 10 16 0.00 0.00
9:53 am 09:53 Sunny 40 4.4 29 -1.7 65 65 NW 8 13 29.88 1012 10 16 0.00 0.00
10:53 am 10:53 Partly Cloudy 41 5 29 -1.7 62 62 W 14 22 29.91 1013 10 16 0.00 0.00
11:53 am 11:53 Partly Cloudy 42 5.6 30 -1.1 62 62 VRB 3 6 29.91 1013 10 16 0.00 0.00
12:53 pm 12:53 Partly Cloudy 44 6.7 29 -1.7 55 55 W 10 17 29.89 1012 10 16 0.00 0.00
1:53 pm 13:53 Partly Cloudy 43 6.1 29 -1.7 58 58 WNW 12 19 29.89 1012 10 16 0.00 0.00
2:53 pm 14:53 Mostly Sunny 42 5.6 28 -2.2 58 58 W 14 22 29.90 1013 10 16 0.00 0.00
3:53 pm 15:53 Mostly Sunny 38 3.3 27 -2.8 65 65 W 14 22 29.93 1013 10 16 0.00 0.00
4:53 pm 16:53 Mostly Cloudy 36 2.2 26 -3.3 67 67 NW 7 11 29.95 1014 10 16 0.00 0.00
5:53 pm 17:53 Cloudy 36 2.2 25 -3.9 64 64 NNW 10 17 29.97 1015 10 16 0.00 0.00
6:53 pm 18:53 Cloudy 35 1.7 26 -3.3 70 70 WNW 6 9 29.98 1015 10 16 0.00 0.00
7:53 pm 19:53 Cloudy 35 1.7 26 -3.3 70 70 N 8 13 29.99 1016 10 16 0.00 0.00
8:53 pm 20:53 Cloudy 33 0.6 25 -3.9 72 72 W 10 17 30.01 1016 10 16 0.00 0.00
9:53 pm 21:53 Cloudy 33 0.6 25 -3.9 72 72 WNW 7 11 30.02 1017 10 16 0.00 0.00
10:53 pm 22:53 Cloudy 33 0.6 25 -3.9 72 72 NNW 8 13 30.01 1016 10 16 0.00 0.00
11:53 pm 23:53 Cloudy 33 0.6 24 -4.4 70 70 NNW 8 13 30.02 1017 10 16 0.00 0.00

Powered by AerisWeather